Time,TemperatureF,DewpointF,PressureIn,WindDirection,WindDirectionDegrees,WindSpeedMPH,WindSpeedGustMPH,Humidity,HourlyPrecipIn,Conditions,Clouds,dailyrainin,SoftwareType,DateUTC
2013-05-26 00:00:00,72.0,63.2,30.00,SSE,167,3.0,7.0,74,0.00,,,0.00,LWC2 V0.39 B123,2013-05-26 06:00:00,
2013-05-26 00:05:00,72.1,63.3,30.01,WSW,246,3.0,8.0,74,0.00,,,0.00,LWC2 V0.39 B123,2013-05-26 06:05:00,
2013-05-26 00:10:00,72.1,63.7,30.00,SSE,149,2.0,9.0,75,0.00,,,0.00,LWC2 V0.39 B123,2013-05-26 06:10:00,
2013-05-26 00:15:00,72.1,63.7,30.01,WSW,243,8.0,8.0,75,0.00,,,0.00,LWC2 V0.39 B123,2013-05-26 06:15:00,
2013-05-26 00:20:00,72.1,63.7,30.01,SSE,166,2.0,7.0,75,0.00,,,0.00,LWC2 V0.39 B123,2013-05-26 06:20:00,
2013-05-26 00:25:00,72.0,64.0,30.00,West,270,2.0,8.0,76,0.00,,,0.00,LWC2 V0.39 B123,2013-05-26 06:25:00,
2013-05-26 00:30:00,71.9,63.9,30.00,SSE,165,1.0,4.0,76,0.00,,,0.00,LWC2 V0.39 B123,2013-05-26 06:30:00,
2013-05-26 00:35:00,71.8,64.2,30.00,SSW,211,3.0,5.0,77,0.00,,,0.00,LWC2 V0.39 B123,2013-05-26 06:35:00,
2013-05-26 00:40:00,71.7,64.1,30.00,SW,215,3.0,6.0,77,0.00,,,0.00,LWC2 V0.39 B123,2013-05-26 06:40:00,
2013-05-26 00:45:00,71.6,64.4,30.00,SSW,205,2.0,5.0,78,0.00,,,0.00,LWC2 V0.39 B123,2013-05-26 06:45:00,
2013-05-26 00:50:00,71.6,64.4,30.00,SSW,193,2.0,5.0,78,0.00,,,0.00,LWC2 V0.39 B123,2013-05-26 06:50:00,
2013-05-26 00:55:00,71.4,64.2,30.00,SSW,200,3.0,7.0,78,0.00,,,0.00,LWC2 V0.39 B123,2013-05-26 06:55:00,
2013-05-26 01:00:00,71.4,64.5,30.00,South,178,2.0,7.0,79,0.00,,,0.00,LWC2 V0.39 B123,2013-05-26 07:00:00,
2013-05-26 01:05:00,71.3,64.4,30.00,SE,134,2.0,3.0,79,0.00,,,0.00,LWC2 V0.39 B123,2013-05-26 07:05:00,
2013-05-26 01:10:00,71.2,64.7,30.00,ESE,117,2.0,4.0,80,0.00,,,0.00,LWC2 V0.39 B123,2013-05-26 07:10:00,
2013-05-26 01:15:00,71.1,64.6,30.00,South,190,2.0,3.0,80,0.00,,,0.00,LWC2 V0.39 B123,2013-05-26 07:15:00,
2013-05-26 01:20:00,71.1,65.0,30.00,SE,130,1.0,4.0,81,0.00,,,0.00,LWC2 V0.39 B123,2013-05-26 07:20:00,
2013-05-26 01:25:00,71.1,65.3,30.00,SE,146,1.0,4.0,82,0.00,,,0.00,LWC2 V0.39 B123,2013-05-26 07:25:00,
2013-05-26 01:30:00,71.1,65.3,30.00,WSW,238,5.0,5.0,82,0.00,,,0.00,LWC2 V0.39 B123,2013-05-26 07:30:00,
2013-05-26 01:35:00,71.1,65.7,30.00,SSE,154,2.0,4.0,83,0.00,,,0.00,LWC2 V0.39 B123,2013-05-26 07:35:00,
2013-05-26 01:40:00,71.1,65.7,30.00,WSW,239,3.0,6.0,83,0.00,,,0.00,LWC2 V0.39 B123,2013-05-26 07:40:00,
2013-05-26 01:45:00,71.1,66.0,30.00,SE,142,3.0,6.0,84,0.00,,,0.00,LWC2 V0.39 B123,2013-05-26 07:45:00,
2013-05-26 01:50:00,71.1,66.0,29.99,SE,142,2.0,6.0,84,0.00,,,0.00,LWC2 V0.39 B123,2013-05-26 07:50:00,
2013-05-26 01:55:00,71.1,66.4,29.99,SW,221,4.0,5.0,85,0.00,,,0.00,LWC2 V0.39 B123,2013-05-26 07:55:00,
2013-05-26 02:00:00,71.0,66.3,29.99,SSE,165,3.0,4.0,85,0.00,,,0.00,LWC2 V0.39 B123,2013-05-26 08:00:00,
2013-05-26 02:05:00,70.9,66.2,29.99,South,183,1.0,7.0,85,0.00,,,0.00,LWC2 V0.39 B123,2013-05-26 08:05:00,
2013-05-26 02:10:00,70.9,66.5,29.99,South,174,3.0,9.0,86,0.00,,,0.00,LWC2 V0.39 B123,2013-05-26 08:10:00,
2013-05-26 02:15:00,70.8,66.4,29.99,ESE,109,3.0,3.0,86,0.00,,,0.00,LWC2 V0.39 B123,2013-05-26 08:15:00,
2013-05-26 02:20:00,70.6,66.2,29.99,SSE,147,4.0,6.0,86,0.00,,,0.00,LWC2 V0.39 B123,2013-05-26 08:20:00,
2013-05-26 02:25:00,70.5,66.4,29.98,SE,137,0.0,4.0,87,0.00,,,0.00,LWC2 V0.39 B123,2013-05-26 08:25:00,
2013-05-26 02:30:00,70.3,66.2,29.98,South,184,3.0,4.0,87,0.00,,,0.00,LWC2 V0.39 B123,2013-05-26 08:30:00,
2013-05-26 02:35:00,70.1,66.0,29.98,SE,132,3.0,4.0,87,0.00,,,0.00,LWC2 V0.39 B123,2013-05-26 08:35:00,
2013-05-26 02:40:00,69.9,66.2,29.98,SE,129,3.0,3.0,88,0.00,,,0.00,LWC2 V0.39 B123,2013-05-26 08:40:00,
2013-05-26 02:45:00,69.8,66.1,29.98,SSE,160,1.0,6.0,88,0.00,,,0.00,LWC2 V0.39 B123,2013-05-26 08:45:00,
2013-05-26 02:50:00,69.8,66.4,29.98,SSW,202,2.0,6.0,89,0.00,,,0.00,LWC2 V0.39 B123,2013-05-26 08:50:00,
2013-05-26 02:55:00,69.7,66.3,29.97,West,261,2.0,8.0,89,0.00,,,0.00,LWC2 V0.39 B123,2013-05-26 08:55:00,
2013-05-26 03:00:00,69.6,66.2,29.97,ESE,104,3.0,7.0,89,0.00,,,0.00,LWC2 V0.39 B123,2013-05-26 09:00:00,
2013-05-26 03:05:00,69.5,66.1,29.98,SSE,159,2.0,7.0,89,0.00,,,0.00,LWC2 V0.39 B123,2013-05-26 09:05:00,
2013-05-26 03:10:00,69.4,66.0,29.97,SSE,165,1.0,3.0,89,0.00,,,0.00,LWC2 V0.39 B123,2013-05-26 09:10:00,
2013-05-26 03:15:00,69.4,66.3,29.97,South,190,4.0,4.0,90,0.00,,,0.00,LWC2 V0.39 B123,2013-05-26 09:15:00,
2013-05-26 03:20:00,69.3,66.2,29.97,South,189,3.0,7.0,90,0.00,,,0.00,LWC2 V0.39 B123,2013-05-26 09:20:00,
2013-05-26 03:25:00,69.3,66.2,29.98,SW,228,6.0,7.0,90,0.00,,,0.00,LWC2 V0.39 B123,2013-05-26 09:25:00,
2013-05-26 03:30:00,69.2,66.1,29.98,SW,231,1.0,5.0,90,0.00,,,0.00,LWC2 V0.39 B123,2013-05-26 09:30:00,
2013-05-26 03:35:00,69.2,66.1,29.98,SSE,166,3.0,3.0,90,0.00,,,0.00,LWC2 V0.39 B123,2013-05-26 09:35:00,
2013-05-26 03:40:00,69.1,66.4,29.98,SW,236,3.0,6.0,91,0.00,,,0.00,LWC2 V0.39 B123,2013-05-26 09:40:00,
2013-05-26 03:45:00,69.1,66.4,29.97,South,176,3.0,9.0,91,0.00,,,0.00,LWC2 V0.39 B123,2013-05-26 09:45:00,
2013-05-26 03:50:00,69.0,66.3,29.97,SW,215,6.0,8.0,91,0.00,,,0.00,LWC2 V0.39 B123,2013-05-26 09:50:00,
2013-05-26 03:55:00,69.0,66.3,29.97,ESE,117,2.0,4.0,91,0.00,,,0.00,LWC2 V0.39 B123,2013-05-26 09:55:00,
2013-05-26 04:00:00,69.1,66.4,29.97,ESE,115,4.0,8.0,91,0.00,,,0.00,LWC2 V0.39 B123,2013-05-26 10:00:00,
2013-05-26 04:05:00,69.1,66.4,29.97,SE,142,1.0,3.0,91,0.00,,,0.00,LWC2 V0.39 B123,2013-05-26 10:05:00,
2013-05-26 04:10:00,69.0,66.3,29.97,SSE,155,5.0,5.0,91,0.00,,,0.00,LWC2 V0.39 B123,2013-05-26 10:10:00,
2013-05-26 04:15:00,69.0,66.3,29.97,South,174,2.0,5.0,91,0.00,,,0.00,LWC2 V0.39 B123,2013-05-26 10:15:00,
2013-05-26 04:20:00,68.9,66.2,29.97,SSE,152,1.0,5.0,91,0.00,,,0.00,LWC2 V0.39 B123,2013-05-26 10:20:00,
2013-05-26 04:25:00,68.8,66.1,29.97,South,170,2.0,5.0,91,0.00,,,0.00,LWC2 V0.39 B123,2013-05-26 10:25:00,
2013-05-26 04:30:00,68.7,66.3,29.97,ESE,105,1.0,4.0,92,0.00,,,0.00,LWC2 V0.39 B123,2013-05-26 10:30:00,
2013-05-26 04:35:00,68.7,66.3,29.97,SSE,160,5.0,5.0,92,0.00,,,0.00,LWC2 V0.39 B123,2013-05-26 10:35:00,
2013-05-26 04:40:00,68.7,66.3,29.97,South,173,0.0,3.0,92,0.00,,,0.00,LWC2 V0.39 B123,2013-05-26 10:40:00,
2013-05-26 04:45:00,68.7,66.3,29.97,SW,229,2.0,4.0,92,0.00,,,0.00,LWC2 V0.39 B123,2013-05-26 10:45:00,
2013-05-26 04:50:00,68.6,66.2,29.97,SSW,195,3.0,5.0,92,0.00,,,0.00,LWC2 V0.39 B123,2013-05-26 10:50:00,
2013-05-26 04:55:00,68.5,66.1,29.97,SE,138,4.0,6.0,92,0.00,,,0.00,LWC2 V0.39 B123,2013-05-26 10:55:00,
2013-05-26 05:00:00,68.5,66.1,29.97,SSW,200,2.0,5.0,92,0.00,,,0.00,LWC2 V0.39 B123,2013-05-26 11:00:00,
2013-05-26 05:05:00,68.4,66.0,29.98,SSE,162,1.0,4.0,92,0.00,,,0.00,LWC2 V0.39 B123,2013-05-26 11:05:00,
2013-05-26 05:10:00,68.4,66.0,29.97,South,169,2.0,3.0,92,0.00,,,0.00,LWC2 V0.39 B123,2013-05-26 11:10:00,
2013-05-26 05:15:00,68.3,65.9,29.97,SE,143,1.0,2.0,92,0.00,,,0.00,LWC2 V0.39 B123,2013-05-26 11:15:00,
2013-05-26 05:20:00,68.1,65.7,29.97,SE,134,5.0,5.0,92,0.00,,,0.00,LWC2 V0.39 B123,2013-05-26 11:20:00,
2013-05-26 05:25:00,68.0,65.9,29.97,SSE,148,2.0,4.0,93,0.00,,,0.00,LWC2 V0.39 B123,2013-05-26 11:25:00,
2013-05-26 05:30:00,67.9,65.8,29.97,South,188,3.0,5.0,93,0.00,,,0.00,LWC2 V0.39 B123,2013-05-26 11:30:00,
2013-05-26 05:35:00,68.0,65.9,29.97,SSE,155,3.0,5.0,93,0.00,,,0.00,LWC2 V0.39 B123,2013-05-26 11:35:00,
2013-05-26 05:40:00,68.1,66.0,29.98,SE,138,2.0,5.0,93,0.00,,,0.00,LWC2 V0.39 B123,2013-05-26 11:40:00,
2013-05-26 05:45:00,68.3,66.2,29.98,SSW,200,3.0,5.0,93,0.00,,,0.00,LWC2 V0.39 B123,2013-05-26 11:45:00,
2013-05-26 05:50:00,68.5,66.1,29.97,SE,143,1.0,7.0,92,0.00,,,0.00,LWC2 V0.39 B123,2013-05-26 11:50:00,
2013-05-26 05:55:00,68.5,66.1,29.98,SW,235,4.0,5.0,92,0.00,,,0.00,LWC2 V0.39 B123,2013-05-26 11:55:00,
2013-05-26 06:00:00,68.6,66.2,29.98,SSW,197,5.0,7.0,92,0.00,,,0.00,LWC2 V0.39 B123,2013-05-26 12:00:00,
2013-05-26 06:05:00,68.7,66.3,29.97,ESE,119,2.0,7.0,92,0.00,,,0.00,LWC2 V0.39 B123,2013-05-26 12:05:00,
2013-05-26 06:10:00,68.8,66.4,29.97,SSE,168,5.0,8.0,92,0.00,,,0.00,LWC2 V0.39 B123,2013-05-26 12:10:00,
2013-05-26 06:15:00,69.0,66.6,29.98,SE,143,6.0,6.0,92,0.00,,,0.00,LWC2 V0.39 B123,2013-05-26 12:15:00,
2013-05-26 06:20:00,69.2,66.8,29.98,SSE,155,4.0,7.0,92,0.00,,,0.00,LWC2 V0.39 B123,2013-05-26 12:20:00,
2013-05-26 06:25:00,69.4,66.7,29.97,SW,231,9.0,9.0,91,0.00,,,0.00,LWC2 V0.39 B123,2013-05-26 12:25:00,
2013-05-26 06:30:00,69.6,66.8,29.97,SSW,198,2.0,7.0,91,0.00,,,0.00,LWC2 V0.39 B123,2013-05-26 12:30:00,
2013-05-26 06:35:00,69.8,67.0,29.97,South,170,2.0,5.0,91,0.00,,,0.00,LWC2 V0.39 B123,2013-05-26 12:35:00,
2013-05-26 06:40:00,70.1,67.3,29.98,SSW,194,3.0,6.0,91,0.00,,,0.00,LWC2 V0.39 B123,2013-05-26 12:40:00,
2013-05-26 06:45:00,70.4,67.3,29.98,East,96,2.0,8.0,90,0.00,,,0.00,LWC2 V0.39 B123,2013-05-26 12:45:00,
2013-05-26 06:50:00,70.6,67.5,29.98,SSW,204,5.0,7.0,90,0.00,,,0.00,LWC2 V0.39 B123,2013-05-26 12:50:00,
2013-05-26 06:55:00,71.0,67.9,29.98,WNW,283,2.0,4.0,90,0.00,,,0.00,LWC2 V0.39 B123,2013-05-26 12:55:00,
2013-05-26 07:00:00,71.2,68.1,29.98,South,176,5.0,10.0,90,0.00,,,0.00,LWC2 V0.39 B123,2013-05-26 13:00:00,
2013-05-26 07:05:00,71.5,68.1,29.98,SSW,207,6.0,6.0,89,0.00,,,0.00,LWC2 V0.39 B123,2013-05-26 13:05:00,
2013-05-26 07:10:00,71.5,68.1,29.98,SSE,167,8.0,8.0,89,0.00,,,0.00,LWC2 V0.39 B123,2013-05-26 13:10:00,
2013-05-26 07:15:00,71.5,68.1,29.98,SSW,193,1.0,8.0,89,0.00,,,0.00,LWC2 V0.39 B123,2013-05-26 13:15:00,
2013-05-26 07:20:00,71.4,68.0,29.98,South,172,0.0,7.0,89,0.00,,,0.00,LWC2 V0.39 B123,2013-05-26 13:20:00,
2013-05-26 07:25:00,71.4,68.0,29.99,WSW,238,1.0,8.0,89,0.00,,,0.00,LWC2 V0.39 B123,2013-05-26 13:25:00,
2013-05-26 07:30:00,71.4,68.3,29.99,West,262,3.0,8.0,90,0.00,,,0.00,LWC2 V0.39 B123,2013-05-26 13:30:00,
2013-05-26 07:35:00,71.4,68.0,29.99,SW,215,6.0,12.0,89,0.00,,,0.00,LWC2 V0.39 B123,2013-05-26 13:35:00,
2013-05-26 07:40:00,71.4,68.3,29.99,West,262,6.0,8.0,90,0.00,,,0.00,LWC2 V0.39 B123,2013-05-26 13:40:00,
2013-05-26 07:45:00,71.6,68.2,29.99,West,259,5.0,9.0,89,0.00,,,0.00,LWC2 V0.39 B123,2013-05-26 13:45:00,
2013-05-26 07:50:00,72.0,68.6,29.99,SW,218,5.0,13.0,89,0.00,,,0.00,LWC2 V0.39 B123,2013-05-26 13:50:00,
2013-05-26 07:55:00,72.7,68.9,29.99,SSW,200,2.0,11.0,88,0.00,,,0.00,LWC2 V0.39 B123,2013-05-26 13:55:00,
2013-05-26 08:00:00,73.3,69.2,29.99,SSE,154,7.0,7.0,87,0.00,,,0.00,LWC2 V0.39 B123,2013-05-26 14:00:00,
2013-05-26 08:05:00,73.8,69.3,29.99,West,265,1.0,11.0,86,0.00,,,0.00,LWC2 V0.39 B123,2013-05-26 14:05:00,
2013-05-26 08:10:00,74.4,69.6,29.99,SSW,193,2.0,13.0,85,0.00,,,0.00,LWC2 V0.39 B123,2013-05-26 14:10:00,
2013-05-26 08:15:00,75.0,70.2,29.99,SW,233,5.0,8.0,85,0.00,,,0.00,LWC2 V0.39 B123,2013-05-26 14:15:00,
2013-05-26 08:20:00,75.5,70.3,29.99,SSW,211,1.0,9.0,84,0.00,,,0.00,LWC2 V0.39 B123,2013-05-26 14:20:00,
2013-05-26 08:25:00,76.0,70.4,29.99,SSW,210,4.0,5.0,83,0.00,,,0.00,LWC2 V0.39 B123,2013-05-26 14:25:00,
2013-05-26 08:30:00,76.1,69.8,29.99,South,183,5.0,9.0,81,0.00,,,0.00,LWC2 V0.39 B123,2013-05-26 14:30:00,
2013-05-26 08:35:00,76.7,71.1,29.99,SSW,194,1.0,6.0,83,0.00,,,0.00,LWC2 V0.39 B123,2013-05-26 14:35:00,
2013-05-26 08:40:00,77.4,70.7,29.99,NNW,327,1.0,10.0,80,0.00,,,0.00,LWC2 V0.39 B123,2013-05-26 14:40:00,
2013-05-26 08:45:00,77.5,71.2,30.00,South,179,4.0,4.0,81,0.00,,,0.00,LWC2 V0.39 B123,2013-05-26 14:45:00,
2013-05-26 08:50:00,77.7,70.7,30.00,SW,235,8.0,9.0,79,0.00,,,0.00,LWC2 V0.39 B123,2013-05-26 14:50:00,
2013-05-26 08:55:00,77.9,70.8,29.99,West,267,2.0,10.0,79,0.00,,,0.00,LWC2 V0.39 B123,2013-05-26 14:55:00,
2013-05-26 09:00:00,77.9,70.8,30.00,SSE,160,5.0,10.0,79,0.00,,,0.00,LWC2 V0.39 B123,2013-05-26 15:00:00,
2013-05-26 09:05:00,77.8,70.4,29.99,NW,314,2.0,5.0,78,0.00,,,0.00,LWC2 V0.39 B123,2013-05-26 15:05:00,
2013-05-26 09:10:00,78.2,71.1,29.99,South,170,8.0,8.0,79,0.00,,,0.00,LWC2 V0.39 B123,2013-05-26 15:10:00,
2013-05-26 09:15:00,78.7,70.9,29.99,SSE,162,2.0,10.0,77,0.00,,,0.00,LWC2 V0.39 B123,2013-05-26 15:15:00,
2013-05-26 09:20:00,79.6,71.7,29.99,SE,146,2.0,11.0,77,0.00,,,0.00,LWC2 V0.39 B123,2013-05-26 15:20:00,
2013-05-26 09:25:00,79.6,71.0,29.99,SSE,165,8.0,11.0,75,0.00,,,0.00,LWC2 V0.39 B123,2013-05-26 15:25:00,
2013-05-26 09:30:00,79.7,71.4,29.99,NW,316,4.0,6.0,76,0.00,,,0.00,LWC2 V0.39 B123,2013-05-26 15:30:00,
2013-05-26 09:35:00,79.4,70.8,29.99,WSW,239,3.0,13.0,75,0.00,,,0.00,LWC2 V0.39 B123,2013-05-26 15:35:00,
2013-05-26 09:40:00,78.9,70.7,29.99,SW,231,5.0,9.0,76,0.00,,,0.00,LWC2 V0.39 B123,2013-05-26 15:40:00,
2013-05-26 09:45:00,78.5,70.7,29.99,WSW,238,4.0,4.0,77,0.00,,,0.00,LWC2 V0.39 B123,2013-05-26 15:45:00,
2013-05-26 09:50:00,78.9,70.7,29.98,SSW,203,7.0,13.0,76,0.00,,,0.00,LWC2 V0.39 B123,2013-05-26 15:50:00,
2013-05-26 09:55:00,79.2,71.0,29.98,SW,236,9.0,10.0,76,0.00,,,0.00,LWC2 V0.39 B123,2013-05-26 15:55:00,
2013-05-26 10:00:00,79.8,71.1,29.98,SE,136,6.0,13.0,75,0.00,,,0.00,LWC2 V0.39 B123,2013-05-26 16:00:00,
2013-05-26 10:05:00,79.8,71.1,29.98,NW,304,3.0,12.0,75,0.00,,,0.00,LWC2 V0.39 B123,2013-05-26 16:05:00,
2013-05-26 10:10:00,79.6,71.7,29.98,SE,138,4.0,8.0,77,0.00,,,0.00,LWC2 V0.39 B123,2013-05-26 16:10:00,
2013-05-26 10:15:00,79.5,71.3,29.98,WSW,254,5.0,8.0,76,0.00,,,0.00,LWC2 V0.39 B123,2013-05-26 16:15:00,
2013-05-26 10:20:00,79.2,71.0,29.98,ESE,121,3.0,10.0,76,0.00,,,0.00,LWC2 V0.39 B123,2013-05-26 16:20:00,
2013-05-26 10:25:00,78.7,70.5,29.98,South,180,6.0,11.0,76,0.00,,,0.00,LWC2 V0.39 B123,2013-05-26 16:25:00,
2013-05-26 10:30:00,78.4,70.6,29.98,SSE,160,6.0,11.0,77,0.00,,,0.00,LWC2 V0.39 B123,2013-05-26 16:30:00,
2013-05-26 10:35:00,78.1,70.3,29.98,WSW,238,7.0,11.0,77,0.00,,,0.00,LWC2 V0.39 B123,2013-05-26 16:35:00,
2013-05-26 10:40:00,78.1,70.3,29.98,SSE,148,4.0,12.0,77,0.00,,,0.00,LWC2 V0.39 B123,2013-05-26 16:40:00,
2013-05-26 10:45:00,78.0,70.6,29.98,SSW,197,4.0,13.0,78,0.00,,,0.00,LWC2 V0.39 B123,2013-05-26 16:45:00,
2013-05-26 10:50:00,77.9,70.5,29.98,SSE,151,5.0,12.0,78,0.00,,,0.00,LWC2 V0.39 B123,2013-05-26 16:50:00,
2013-05-26 10:55:00,77.8,70.0,29.98,South,177,4.0,16.0,77,0.00,,,0.00,LWC2 V0.39 B123,2013-05-26 16:55:00,
2013-05-26 11:00:00,78.2,71.1,29.98,SSW,205,3.0,6.0,79,0.00,,,0.00,LWC2 V0.39 B123,2013-05-26 17:00:00,
2013-05-26 11:05:00,78.4,70.6,29.98,South,170,8.0,11.0,77,0.00,,,0.00,LWC2 V0.39 B123,2013-05-26 17:05:00,
2013-05-26 11:13:00,79.2,71.3,29.97,South,184,5.0,9.0,77,0.00,,,0.00,LWC2 V0.39 B123,2013-05-26 17:13:00,
2013-05-26 11:19:00,79.8,71.1,29.97,SW,235,7.0,9.0,75,0.00,,,0.00,LWC2 V0.39 B123,2013-05-26 17:19:00,
2013-05-26 11:24:00,80.6,71.9,29.97,SW,224,7.0,10.0,75,0.00,,,0.00,LWC2 V0.39 B123,2013-05-26 17:24:00,
2013-05-26 11:29:00,80.6,71.9,29.97,SSE,165,5.0,7.0,75,0.00,,,0.00,LWC2 V0.39 B123,2013-05-26 17:29:00,
2013-05-26 11:34:00,80.4,71.3,29.97,WSW,239,7.0,11.0,74,0.00,,,0.00,LWC2 V0.39 B123,2013-05-26 17:34:00,
2013-05-26 11:39:00,80.4,71.3,29.97,SW,214,7.0,16.0,74,0.00,,,0.00,LWC2 V0.39 B123,2013-05-26 17:39:00,
2013-05-26 11:44:00,81.1,72.4,29.97,South,191,4.0,7.0,75,0.00,,,0.00,LWC2 V0.39 B123,2013-05-26 17:44:00,
2013-05-26 11:49:00,81.6,72.5,29.97,SSE,156,4.0,10.0,74,0.00,,,0.00,LWC2 V0.39 B123,2013-05-26 17:49:00,
2013-05-26 11:54:00,81.2,71.7,29.97,South,174,3.0,7.0,73,0.00,,,0.00,LWC2 V0.39 B123,2013-05-26 17:54:00,
2013-05-26 11:59:00,80.8,71.7,29.97,SE,145,5.0,8.0,74,0.00,,,0.00,LWC2 V0.39 B123,2013-05-26 17:59:00,
2013-05-26 12:04:00,80.3,72.0,29.96,ESE,122,8.0,9.0,76,0.00,,,0.00,LWC2 V0.39 B123,2013-05-26 18:04:00,
2013-05-26 12:09:00,80.7,72.4,29.96,SW,235,9.0,11.0,76,0.00,,,0.00,LWC2 V0.39 B123,2013-05-26 18:09:00,
2013-05-26 12:14:00,81.3,72.2,29.95,SSE,160,7.0,13.0,74,0.00,,,0.00,LWC2 V0.39 B123,2013-05-26 18:14:00,
2013-05-26 12:19:00,81.7,73.0,29.95,SSE,165,5.0,8.0,75,0.00,,,0.00,LWC2 V0.39 B123,2013-05-26 18:19:00,
2013-05-26 12:24:00,81.9,72.8,29.95,SSE,153,1.0,6.0,74,0.00,,,0.00,LWC2 V0.39 B123,2013-05-26 18:24:00,
2013-05-26 12:29:00,82.7,73.9,29.95,SW,235,5.0,7.0,75,0.00,,,0.00,LWC2 V0.39 B123,2013-05-26 18:29:00,
2013-05-26 12:34:00,82.6,72.2,29.95,SSE,163,4.0,7.0,71,0.00,,,0.00,LWC2 V0.39 B123,2013-05-26 18:34:00,
2013-05-26 12:39:00,82.4,72.8,29.94,South,184,4.0,11.0,73,0.00,,,0.00,LWC2 V0.39 B123,2013-05-26 18:39:00,
2013-05-26 12:44:00,81.8,72.3,29.94,South,177,5.0,7.0,73,0.00,,,0.00,LWC2 V0.39 B123,2013-05-26 18:44:00,
2013-05-26 12:49:00,81.7,72.6,29.93,SW,233,5.0,10.0,74,0.00,,,0.00,LWC2 V0.39 B123,2013-05-26 18:49:00,
2013-05-26 12:54:00,82.3,71.9,29.93,SSE,153,4.0,13.0,71,0.00,,,0.00,LWC2 V0.39 B123,2013-05-26 18:54:00,
2013-05-26 12:59:00,82.7,72.7,29.93,South,181,7.0,10.0,72,0.00,,,0.00,LWC2 V0.39 B123,2013-05-26 18:59:00,
2013-05-26 13:04:00,82.8,73.2,29.93,ENE,60,5.0,8.0,73,0.00,,,0.00,LWC2 V0.39 B123,2013-05-26 19:04:00,
2013-05-26 13:09:00,83.1,72.7,29.93,SE,125,7.0,7.0,71,0.00,,,0.00,LWC2 V0.39 B123,2013-05-26 19:09:00,
2013-05-26 13:14:00,82.6,71.8,29.93,South,181,9.0,11.0,70,0.00,,,0.00,LWC2 V0.39 B123,2013-05-26 19:14:00,
2013-05-26 13:19:00,82.7,72.7,29.93,SW,235,13.0,13.0,72,0.00,,,0.00,LWC2 V0.39 B123,2013-05-26 19:19:00,
2013-05-26 13:24:00,83.3,72.9,29.93,SSW,209,9.0,9.0,71,0.00,,,0.00,LWC2 V0.39 B123,2013-05-26 19:24:00,
2013-05-26 13:29:00,83.5,72.7,29.92,SW,227,5.0,9.0,70,0.00,,,0.00,LWC2 V0.39 B123,2013-05-26 19:29:00,
2013-05-26 13:34:00,83.1,72.7,29.92,SW,229,7.0,7.0,71,0.00,,,0.00,LWC2 V0.39 B123,2013-05-26 19:34:00,
2013-05-26 13:39:00,83.8,73.4,29.92,South,176,4.0,9.0,71,0.00,,,0.00,LWC2 V0.39 B123,2013-05-26 19:39:00,
2013-05-26 13:44:00,84.7,73.4,29.92,NW,309,3.0,12.0,69,0.00,,,0.00,LWC2 V0.39 B123,2013-05-26 19:44:00,
2013-05-26 13:49:00,84.5,72.7,29.92,WSW,239,9.0,11.0,68,0.00,,,0.00,LWC2 V0.39 B123,2013-05-26 19:49:00,
2013-05-26 13:54:00,84.4,72.7,29.92,WSW,238,3.0,13.0,68,0.00,,,0.00,LWC2 V0.39 B123,2013-05-26 19:54:00,
2013-05-26 13:59:00,84.2,72.0,29.92,SW,225,4.0,12.0,67,0.00,,,0.00,LWC2 V0.39 B123,2013-05-26 19:59:00,
2013-05-26 14:04:00,84.0,72.3,29.91,South,177,5.0,12.0,68,0.00,,,0.00,LWC2 V0.39 B123,2013-05-26 20:04:00,
2013-05-26 14:09:00,84.3,73.4,29.92,SE,141,4.0,8.0,70,0.00,,,0.00,LWC2 V0.39 B123,2013-05-26 20:09:00,
2013-05-26 14:14:00,85.1,72.9,29.91,SSW,193,7.0,11.0,67,0.00,,,0.00,LWC2 V0.39 B123,2013-05-26 20:14:00,
2013-05-26 14:19:00,85.2,73.0,29.91,SSW,197,4.0,8.0,67,0.00,,,0.00,LWC2 V0.39 B123,2013-05-26 20:19:00,
2013-05-26 14:24:00,85.2,73.0,29.91,SE,146,5.0,9.0,67,0.00,,,0.00,LWC2 V0.39 B123,2013-05-26 20:24:00,
2013-05-26 14:29:00,84.5,72.7,29.91,SSW,197,8.0,11.0,68,0.00,,,0.00,LWC2 V0.39 B123,2013-05-26 20:29:00,
2013-05-26 14:34:00,84.9,73.6,29.91,SSE,153,4.0,7.0,69,0.00,,,0.00,LWC2 V0.39 B123,2013-05-26 20:34:00,
2013-05-26 14:39:00,84.7,72.5,29.91,SSW,198,5.0,11.0,67,0.00,,,0.00,LWC2 V0.39 B123,2013-05-26 20:39:00,
2013-05-26 14:44:00,84.5,71.9,29.91,SSE,162,6.0,11.0,66,0.00,,,0.00,LWC2 V0.39 B123,2013-05-26 20:44:00,
2013-05-26 14:49:00,83.3,71.6,29.91,South,181,5.0,14.0,68,0.00,,,0.00,LWC2 V0.39 B123,2013-05-26 20:49:00,
2013-05-26 14:54:00,83.1,72.3,29.90,SSW,204,3.0,11.0,70,0.00,,,0.00,LWC2 V0.39 B123,2013-05-26 20:54:00,
2013-05-26 14:59:00,84.1,73.2,29.90,West,269,5.0,8.0,70,0.00,,,0.00,LWC2 V0.39 B123,2013-05-26 20:59:00,
2013-05-26 15:04:00,84.6,72.4,29.90,South,186,5.0,12.0,67,0.00,,,0.00,LWC2 V0.39 B123,2013-05-26 21:04:00,
2013-05-26 15:09:00,84.7,72.5,29.89,SW,228,8.0,11.0,67,0.00,,,0.00,LWC2 V0.39 B123,2013-05-26 21:09:00,
2013-05-26 15:14:00,84.3,72.6,29.89,SSE,159,5.0,11.0,68,0.00,,,0.00,LWC2 V0.39 B123,2013-05-26 21:14:00,
2013-05-26 15:19:00,84.8,73.9,29.89,South,169,3.0,9.0,70,0.00,,,0.00,LWC2 V0.39 B123,2013-05-26 21:19:00,
2013-05-26 15:24:00,85.2,73.0,29.89,SW,221,8.0,11.0,67,0.00,,,0.00,LWC2 V0.39 B123,2013-05-26 21:24:00,
2013-05-26 15:37:00,84.8,72.6,29.89,SSW,204,7.0,13.0,67,0.00,,,0.00,LWC2 V0.39 B123,2013-05-26 21:37:00,
2013-05-26 15:42:00,84.1,71.9,29.89,South,181,4.0,8.0,67,0.00,,,0.00,LWC2 V0.39 B123,2013-05-26 21:42:00,
2013-05-26 15:47:00,84.0,71.8,29.89,SSW,211,5.0,11.0,67,0.00,,,0.00,LWC2 V0.39 B123,2013-05-26 21:47:00,
2013-05-26 15:52:00,83.6,71.5,29.89,SSW,200,5.0,12.0,67,0.00,,,0.00,LWC2 V0.39 B123,2013-05-26 21:52:00,
2013-05-26 15:57:00,83.2,71.9,29.89,SE,139,6.0,8.0,69,0.00,,,0.00,LWC2 V0.39 B123,2013-05-26 21:57:00,
2013-05-26 16:02:00,83.3,71.6,29.88,WSW,238,6.0,10.0,68,0.00,,,0.00,LWC2 V0.39 B123,2013-05-26 22:02:00,
2013-05-26 16:07:00,83.1,71.4,29.88,ESE,115,8.0,8.0,68,0.00,,,0.00,LWC2 V0.39 B123,2013-05-26 22:07:00,
2013-05-26 16:12:00,83.0,71.3,29.88,SE,146,8.0,15.0,68,0.00,,,0.00,LWC2 V0.39 B123,2013-05-26 22:12:00,
2013-05-26 16:17:00,83.5,72.7,29.88,SW,233,5.0,7.0,70,0.00,,,0.00,LWC2 V0.39 B123,2013-05-26 22:17:00,
2013-05-26 16:22:00,83.8,72.1,29.87,SE,134,7.0,9.0,68,0.00,,,0.00,LWC2 V0.39 B123,2013-05-26 22:22:00,
2013-05-26 16:27:00,83.9,71.7,29.87,SW,225,4.0,8.0,67,0.00,,,0.00,LWC2 V0.39 B123,2013-05-26 22:27:00,
2013-05-26 16:32:00,83.5,71.8,29.87,SSW,194,5.0,8.0,68,0.00,,,0.00,LWC2 V0.39 B123,2013-05-26 22:32:00,
2013-05-26 16:37:00,83.0,71.8,29.87,WSW,241,8.0,8.0,69,0.00,,,0.00,LWC2 V0.39 B123,2013-05-26 22:37:00,
2013-05-26 16:42:00,83.2,71.1,29.86,SSE,149,6.0,14.0,67,0.00,,,0.00,LWC2 V0.39 B123,2013-05-26 22:42:00,
2013-05-26 16:47:00,83.3,71.6,29.87,SSE,148,6.0,7.0,68,0.00,,,0.00,LWC2 V0.39 B123,2013-05-26 22:47:00,
2013-05-26 16:52:00,83.6,71.5,29.86,South,180,4.0,12.0,67,0.00,,,0.00,LWC2 V0.39 B123,2013-05-26 22:52:00,
2013-05-26 16:57:00,83.5,71.8,29.86,SSW,211,5.0,9.0,68,0.00,,,0.00,LWC2 V0.39 B123,2013-05-26 22:57:00,
2013-05-26 17:02:00,83.8,72.1,29.86,SSW,210,8.0,8.0,68,0.00,,,0.00,LWC2 V0.39 B123,2013-05-26 23:02:00,
2013-05-26 17:07:00,83.9,72.2,29.86,SSW,207,4.0,5.0,68,0.00,,,0.00,LWC2 V0.39 B123,2013-05-26 23:07:00,
2013-05-26 17:12:00,83.9,72.2,29.86,SSW,212,4.0,9.0,68,0.00,,,0.00,LWC2 V0.39 B123,2013-05-26 23:12:00,
2013-05-26 17:17:00,83.3,71.6,29.86,SE,136,5.0,11.0,68,0.00,,,0.00,LWC2 V0.39 B123,2013-05-26 23:17:00,
2013-05-26 17:22:00,82.5,71.3,29.86,SSW,193,9.0,9.0,69,0.00,,,0.00,LWC2 V0.39 B123,2013-05-26 23:22:00,
2013-05-26 17:27:00,82.2,71.0,29.86,South,176,3.0,11.0,69,0.00,,,0.00,LWC2 V0.39 B123,2013-05-26 23:27:00,
2013-05-26 17:32:00,82.2,71.4,29.86,South,176,3.0,5.0,70,0.00,,,0.00,LWC2 V0.39 B123,2013-05-26 23:32:00,
2013-05-26 17:37:00,82.2,71.4,29.85,South,180,2.0,5.0,70,0.00,,,0.00,LWC2 V0.39 B123,2013-05-26 23:37:00,
2013-05-26 17:42:00,82.3,71.1,29.86,SSE,159,4.0,12.0,69,0.00,,,0.00,LWC2 V0.39 B123,2013-05-26 23:42:00,
2013-05-26 17:47:00,82.1,70.9,29.86,SSW,201,7.0,10.0,69,0.00,,,0.00,LWC2 V0.39 B123,2013-05-26 23:47:00,
2013-05-26 17:52:00,81.9,71.1,29.85,SSE,150,3.0,7.0,70,0.00,,,0.00,LWC2 V0.39 B123,2013-05-26 23:52:00,
2013-05-26 17:57:00,81.7,71.4,29.85,SSE,165,6.0,8.0,71,0.00,,,0.00,LWC2 V0.39 B123,2013-05-26 23:57:00,
2013-05-26 18:02:00,81.3,70.6,29.85,SW,233,5.0,11.0,70,0.00,,,0.00,LWC2 V0.39 B123,2013-05-27 00:02:00,
2013-05-26 18:07:00,81.0,70.7,29.85,ESE,117,5.0,7.0,71,0.00,,,0.00,LWC2 V0.39 B123,2013-05-27 00:07:00,
2013-05-26 18:12:00,80.6,70.7,29.86,SSE,167,6.0,6.0,72,0.00,,,0.00,LWC2 V0.39 B123,2013-05-27 00:12:00,
2013-05-26 18:17:00,80.3,70.4,29.85,South,169,4.0,9.0,72,0.00,,,0.00,LWC2 V0.39 B123,2013-05-27 00:17:00,
2013-05-26 18:22:00,80.1,70.2,29.85,SSE,153,7.0,9.0,72,0.00,,,0.00,LWC2 V0.39 B123,2013-05-27 00:22:00,
2013-05-26 18:27:00,80.0,70.5,29.86,SW,235,2.0,4.0,73,0.00,,,0.00,LWC2 V0.39 B123,2013-05-27 00:27:00,
2013-05-26 18:32:00,79.7,70.3,29.86,SSE,160,2.0,7.0,73,0.00,,,0.00,LWC2 V0.39 B123,2013-05-27 00:32:00,
2013-05-26 18:37:00,79.6,69.8,29.86,South,187,6.0,11.0,72,0.00,,,0.00,LWC2 V0.39 B123,2013-05-27 00:37:00,
2013-05-26 18:42:00,79.4,70.0,29.86,SSW,195,6.0,8.0,73,0.00,,,0.00,LWC2 V0.39 B123,2013-05-27 00:42:00,
2013-05-26 18:47:00,79.2,69.8,29.86,SE,134,4.0,5.0,73,0.00,,,0.00,LWC2 V0.39 B123,2013-05-27 00:47:00,
2013-05-26 18:52:00,78.9,69.5,29.86,South,191,3.0,9.0,73,0.00,,,0.00,LWC2 V0.39 B123,2013-05-27 00:52:00,
2013-05-26 18:57:00,78.7,69.3,29.86,South,169,3.0,6.0,73,0.00,,,0.00,LWC2 V0.39 B123,2013-05-27 00:57:00,
2013-05-26 19:02:00,78.5,69.1,29.87,SW,233,3.0,5.0,73,0.00,,,0.00,LWC2 V0.39 B123,2013-05-27 01:02:00,
2013-05-26 19:07:00,78.3,69.3,29.87,SSE,157,3.0,8.0,74,0.00,,,0.00,LWC2 V0.39 B123,2013-05-27 01:07:00,
2013-05-26 19:12:00,78.1,69.1,29.87,SSE,162,5.0,5.0,74,0.00,,,0.00,LWC2 V0.39 B123,2013-05-27 01:12:00,
2013-05-26 19:17:00,78.0,69.0,29.87,SSE,162,3.0,5.0,74,0.00,,,0.00,LWC2 V0.39 B123,2013-05-27 01:17:00,
2013-05-26 19:22:00,77.7,68.7,29.87,South,175,2.0,5.0,74,0.00,,,0.00,LWC2 V0.39 B123,2013-05-27 01:22:00,
2013-05-26 19:27:00,77.6,68.6,29.87,SSW,198,3.0,5.0,74,0.00,,,0.00,LWC2 V0.39 B123,2013-05-27 01:27:00,
2013-05-26 19:32:00,77.3,68.7,29.87,East,89,4.0,4.0,75,0.00,,,0.00,LWC2 V0.39 B123,2013-05-27 01:32:00,
2013-05-26 19:37:00,77.0,68.4,29.87,ESE,119,1.0,4.0,75,0.00,,,0.00,LWC2 V0.39 B123,2013-05-27 01:37:00,
2013-05-26 19:42:00,76.8,68.6,29.88,ESE,115,1.0,3.0,76,0.00,,,0.00,LWC2 V0.39 B123,2013-05-27 01:42:00,
2013-05-26 19:47:00,76.5,68.4,29.88,SSE,155,3.0,4.0,76,0.00,,,0.00,LWC2 V0.39 B123,2013-05-27 01:47:00,
2013-05-26 19:52:00,76.4,68.3,29.88,ESE,118,1.0,2.0,76,0.00,,,0.00,LWC2 V0.39 B123,2013-05-27 01:52:00,
2013-05-26 19:57:00,76.3,68.5,29.88,East,97,2.0,6.0,77,0.00,,,0.00,LWC2 V0.39 B123,2013-05-27 01:57:00,
2013-05-26 20:02:00,76.2,68.4,29.88,SE,142,2.0,5.0,77,0.00,,,0.00,LWC2 V0.39 B123,2013-05-27 02:02:00,
2013-05-26 20:07:00,76.4,68.6,29.88,SSE,163,2.0,4.0,77,0.00,,,0.00,LWC2 V0.39 B123,2013-05-27 02:07:00,
2013-05-26 20:12:00,76.3,68.5,29.88,SSE,151,2.0,5.0,77,0.00,,,0.00,LWC2 V0.39 B123,2013-05-27 02:12:00,
2013-05-26 20:17:00,76.4,68.3,29.89,SE,145,5.0,7.0,76,0.00,,,0.00,LWC2 V0.39 B123,2013-05-27 02:17:00,
2013-05-26 20:22:00,76.3,68.2,29.89,SSE,150,2.0,4.0,76,0.00,,,0.00,LWC2 V0.39 B123,2013-05-27 02:22:00,
2013-05-26 20:27:00,76.2,68.4,29.89,SSE,159,4.0,5.0,77,0.00,,,0.00,LWC2 V0.39 B123,2013-05-27 02:27:00,
2013-05-26 20:32:00,76.1,68.3,29.89,South,184,4.0,4.0,77,0.00,,,0.00,LWC2 V0.39 B123,2013-05-27 02:32:00,
2013-05-26 20:37:00,75.9,68.2,29.90,SE,131,2.0,3.0,77,0.00,,,0.00,LWC2 V0.39 B123,2013-05-27 02:37:00,
2013-05-26 20:42:00,75.8,68.4,29.89,SSW,200,2.0,8.0,78,0.00,,,0.00,LWC2 V0.39 B123,2013-05-27 02:42:00,
2013-05-26 20:47:00,75.6,68.2,29.89,SSE,155,2.0,5.0,78,0.00,,,0.00,LWC2 V0.39 B123,2013-05-27 02:47:00,
2013-05-26 20:52:00,75.4,68.0,29.89,ESE,122,3.0,6.0,78,0.00,,,0.00,LWC2 V0.39 B123,2013-05-27 02:52:00,
2013-05-26 20:57:00,75.4,68.0,29.89,South,181,4.0,9.0,78,0.00,,,0.00,LWC2 V0.39 B123,2013-05-27 02:57:00,
2013-05-26 21:02:00,75.3,68.3,29.89,South,178,3.0,7.0,79,0.00,,,0.00,LWC2 V0.39 B123,2013-05-27 03:02:00,
2013-05-26 21:07:00,75.1,68.1,29.89,WSW,246,2.0,6.0,79,0.00,,,0.00,LWC2 V0.39 B123,2013-05-27 03:07:00,
2013-05-26 21:12:00,75.1,68.1,29.89,ESE,114,3.0,11.0,79,0.00,,,0.00,LWC2 V0.39 B123,2013-05-27 03:12:00,
2013-05-26 21:17:00,75.0,68.0,29.89,SE,137,7.0,8.0,79,0.00,,,0.00,LWC2 V0.39 B123,2013-05-27 03:17:00,
2013-05-26 21:22:00,75.0,68.0,29.88,South,177,8.0,10.0,79,0.00,,,0.00,LWC2 V0.39 B123,2013-05-27 03:22:00,
2013-05-26 21:27:00,75.0,68.0,29.88,SSW,202,4.0,9.0,79,0.00,,,0.00,LWC2 V0.39 B123,2013-05-27 03:27:00,
2013-05-26 21:32:00,74.9,67.9,29.89,SE,138,7.0,7.0,79,0.00,,,0.00,LWC2 V0.39 B123,2013-05-27 03:32:00,
2013-05-26 21:37:00,74.8,67.8,29.89,SSW,196,4.0,10.0,79,0.00,,,0.00,LWC2 V0.39 B123,2013-05-27 03:37:00,
2013-05-26 21:42:00,74.6,68.0,29.89,SSE,167,3.0,8.0,80,0.00,,,0.00,LWC2 V0.39 B123,2013-05-27 03:42:00,
2013-05-26 21:47:00,74.5,67.9,29.88,ESE,123,2.0,10.0,80,0.00,,,0.00,LWC2 V0.39 B123,2013-05-27 03:47:00,
2013-05-26 21:52:00,74.4,67.8,29.89,South,185,4.0,4.0,80,0.00,,,0.00,LWC2 V0.39 B123,2013-05-27 03:52:00,
2013-05-26 21:57:00,74.2,67.6,29.89,SSW,200,3.0,8.0,80,0.00,,,0.00,LWC2 V0.39 B123,2013-05-27 03:57:00,
2013-05-26 22:01:00,74.1,67.9,29.89,SSW,198,3.0,7.0,81,0.00,,,0.00,LWC2 V0.39 B123,2013-05-27 04:01:00,
2013-05-26 22:02:00,74.1,67.9,29.89,South,183,2.0,7.0,81,0.00,,,0.00,LWC2 V0.39 B123,2013-05-27 04:02:00,
2013-05-26 22:03:00,74.1,67.9,29.89,South,187,4.0,5.0,81,0.00,,,0.00,LWC2 V0.39 B123,2013-05-27 04:03:00,
2013-05-26 22:05:00,74.0,67.8,29.89,SE,141,3.0,6.0,81,0.00,,,0.00,LWC2 V0.39 B123,2013-05-27 04:05:00,
2013-05-26 22:08:00,73.9,67.7,29.89,SSE,166,5.0,8.0,81,0.00,,,0.00,LWC2 V0.39 B123,2013-05-27 04:08:00,
2013-05-26 22:13:00,73.7,67.5,29.89,SW,221,4.0,5.0,81,0.00,,,0.00,LWC2 V0.39 B123,2013-05-27 04:13:00,
2013-05-26 22:18:00,73.6,67.4,29.89,SE,146,5.0,8.0,81,0.00,,,0.00,LWC2 V0.39 B123,2013-05-27 04:18:00,
2013-05-26 22:23:00,73.5,67.3,29.89,ESE,121,6.0,11.0,81,0.00,,,0.00,LWC2 V0.39 B123,2013-05-27 04:23:00,
2013-05-26 22:28:00,73.5,67.3,29.89,SSW,205,9.0,10.0,81,0.00,,,0.00,LWC2 V0.39 B123,2013-05-27 04:28:00,
2013-05-26 22:33:00,73.5,67.3,29.89,SSE,162,1.0,8.0,81,0.00,,,0.00,LWC2 V0.39 B123,2013-05-27 04:33:00,
2013-05-26 22:38:00,73.4,67.2,29.89,NW,305,3.0,9.0,81,0.00,,,0.00,LWC2 V0.39 B123,2013-05-27 04:38:00,
2013-05-26 22:43:00,73.3,67.5,29.89,South,184,8.0,8.0,82,0.00,,,0.00,LWC2 V0.39 B123,2013-05-27 04:43:00,
2013-05-26 22:48:00,73.2,67.4,29.89,SSW,197,5.0,7.0,82,0.00,,,0.00,LWC2 V0.39 B123,2013-05-27 04:48:00,
2013-05-26 22:53:00,73.2,67.4,29.88,SE,134,2.0,9.0,82,0.00,,,0.00,LWC2 V0.39 B123,2013-05-27 04:53:00,
2013-05-26 22:58:00,73.1,67.3,29.88,ESE,108,9.0,9.0,82,0.00,,,0.00,LWC2 V0.39 B123,2013-05-27 04:58:00,
2013-05-26 23:03:00,73.0,67.2,29.88,SSE,156,4.0,8.0,82,0.00,,,0.00,LWC2 V0.39 B123,2013-05-27 05:03:00,
2013-05-26 23:08:00,72.9,67.1,29.88,South,183,3.0,10.0,82,0.00,,,0.00,LWC2 V0.39 B123,2013-05-27 05:08:00,
2013-05-26 23:13:00,72.8,67.0,29.88,SE,131,6.0,10.0,82,0.00,,,0.00,LWC2 V0.39 B123,2013-05-27 05:13:00,
2013-05-26 23:18:00,72.7,67.2,29.87,SSW,212,4.0,5.0,83,0.00,,,0.00,LWC2 V0.39 B123,2013-05-27 05:18:00,
2013-05-26 23:23:00,72.6,67.1,29.87,SSW,195,5.0,10.0,83,0.00,,,0.00,LWC2 V0.39 B123,2013-05-27 05:23:00,
2013-05-26 23:28:00,72.6,67.1,29.87,West,260,7.0,7.0,83,0.00,,,0.00,LWC2 V0.39 B123,2013-05-27 05:28:00,
2013-05-26 23:33:00,72.5,67.0,29.87,South,174,2.0,7.0,83,0.00,,,0.00,LWC2 V0.39 B123,2013-05-27 05:33:00,
2013-05-26 23:38:00,72.5,67.4,29.87,South,184,8.0,8.0,84,0.00,,,0.00,LWC2 V0.39 B123,2013-05-27 05:38:00,
2013-05-26 23:43:00,72.4,67.3,29.87,SSE,155,5.0,8.0,84,0.00,,,0.00,LWC2 V0.39 B123,2013-05-27 05:43:00,
2013-05-26 23:48:00,72.4,67.3,29.87,SE,143,7.0,10.0,84,0.00,,,0.00,LWC2 V0.39 B123,2013-05-27 05:48:00,
2013-05-26 23:53:00,72.3,67.2,29.87,SE,145,5.0,7.0,84,0.00,,,0.00,LWC2 V0.39 B123,2013-05-27 05:53:00,
2013-05-26 23:58:00,72.2,67.1,29.87,SSE,167,5.0,10.0,84,0.00,,,0.00,LWC2 V0.39 B123,2013-05-27 05:58:00,